Tracking 31027 objects as of 18-Jul-2025
HD Live streaming from Space Station
objects crossing your sky now

SL-16 DEB

Track SL-16 DEB now!
10-day predictions


NORAD ID: 42255
Int'l Code: 1993-016DK
Perigee: 816.4 km
Apogee: 832.3 km
Inclination: 71.0 °
Period: 101.2 minutes
Semi major axis: 7195 km
RCS: Unknown
Launch date: March 26, 1993
Source: Commonwealth of Independent States (former USSR) (CIS)
Launch site: PLESETSK MISSILE AND SPACE COMPLEX (PKMTR)

Note: This is SATELLITE DEBRIS
Your satellite tracking list
Your tracking list is empty




NASA's NSSDC Master Catalog

Two Line Element Set (TLE):
1 42255U 93016DK  25197.93464299  .00000461  00000-0  22843-3 0  9990
2 42255  71.0077 288.3598 0011039 276.0187 200.8678 14.22401454603355
Source of the keplerian elements: AFSPC